This is the latest recevied weather packets stored in our database for station/object AI5KP-13. If no packets are shown the sender has not sent any weather packets the latest 10 day(s).
| Time | Temp. | Humidity | Pressure | Rain* | Wind** | Luminosity | Snow |
|---|---|---|---|---|---|---|---|
| 1777252864 | 22.78° C | 84% | 1006.6 hPa | 0 mm | - | 0 W/m² | - |
| 1777252561 | 22.78° C | 85% | 1006.2 hPa | 0 mm | - | 0 W/m² | - |
| 1777252258 | 22.78° C | 84% | 1006 hPa | 0 mm | - | 0 W/m² | - |
| 1777251956 | 22.78° C | 84% | 1005.9 hPa | 0 mm | - | 1 W/m² | - |
| 1777251653 | 22.78° C | 84% | 1005.9 hPa | 0 mm | - | 1 W/m² | - |
| 1777251349 | 22.78° C | 84% | 1005.9 hPa | 0 mm | - | 2 W/m² | - |
| 1777251045 | 23.33° C | 83% | 1005.9 hPa | 0 mm | - | 2 W/m² | - |
| 1777250742 | 23.33° C | 83% | 1005.9 hPa | 0 mm | - | 4 W/m² | - |
| 1777250438 | 23.33° C | 83% | 1005.8 hPa | 0 mm | - | 8 W/m² | - |
| 1777250138 | 23.33° C | 83% | 1005.8 hPa | 0 mm | - | 8 W/m² | - |
| 1777249835 | 23.33° C | 83% | 1006.1 hPa | 0 mm | - | 8 W/m² | - |
| 1777249531 | 23.33° C | 82% | 1005.8 hPa | 0 mm | - | 17 W/m² | - |
| 1777249228 | 23.33° C | 82% | 1006 hPa | 0 mm | - | 21 W/m² | - |
| 1777248925 | 23.33° C | 81% | 1005.9 hPa | 0 mm | - | 25 W/m² | - |
| 1777248621 | 23.33° C | 82% | 1006 hPa | 0 mm | - | 34 W/m² | - |
| 1777248319 | 23.33° C | 81% | 1005.8 hPa | 0 mm | - | 33 W/m² | - |
| 1777248015 | 23.89° C | 81% | 1005.9 hPa | 0 mm | - | 39 W/m² | - |
| 1777247714 | 23.89° C | 80% | 1006 hPa | 0 mm | - | 42 W/m² | - |
| 1777247412 | 23.89° C | 79% | 1005.8 hPa | 0 mm | - | 54 W/m² | - |
| 1777247109 | 23.89° C | 80% | 1005.8 hPa | 0 mm | - | 53 W/m² | - |
| 1777246805 | 23.89° C | 80% | 1005.8 hPa | 0 mm | - | 43 W/m² | - |
| 1777246501 | 23.89° C | 79% | 1005.9 hPa | 0 mm | - | 33 W/m² | - |
| 1777246198 | 23.89° C | 79% | 1006 hPa | 0 mm | - | 37 W/m² | - |
| 1777245896 | 24.44° C | 79% | 1006.1 hPa | 0 mm | - | 60 W/m² | - |
| 1777245594 | 24.44° C | 78% | 1006.2 hPa | 0 mm | - | 91 W/m² | - |
* Rain latest hour (hover to see other rain measurements)
** Current wind speed in m/s (hover to see current wind gust speed)